This is the latest recevied weather packets stored in our database for station/object JE6MIQ-13. If no packets are shown the sender has not sent any weather packets the latest 10 day(s).
| Time | Temp. | Humidity | Pressure | Rain* | Wind** | Luminosity | Snow |
|---|---|---|---|---|---|---|---|
| 1777759354 | 18.33° C | 41% | 1006.3 hPa | 0 mm | - | - | - |
| 1777758753 | 18.33° C | 40% | 1006.4 hPa | 0 mm | - | - | - |
| 1777758154 | 17.78° C | 41% | 1006.4 hPa | 0 mm | - | - | - |
| 1777757554 | 17.78° C | 39% | 1006.7 hPa | 0 mm | - | - | - |
| 1777756953 | 17.78° C | 38% | 1006.8 hPa | 0 mm | - | - | - |
| 1777756352 | 17.78° C | 40% | 1006.8 hPa | 0 mm | - | - | - |
| 1777755753 | 17.78° C | 35% | 1007.2 hPa | 0 mm | - | - | - |
| 1777755154 | 17.78° C | 35% | 1007.2 hPa | 0 mm | - | - | - |
| 1777754552 | 17.78° C | 35% | 1007.2 hPa | 0 mm | - | - | - |
| 1777753954 | 17.78° C | 35% | 1007.2 hPa | 0 mm | - | - | - |
| 1777753354 | 17.78° C | 38% | 1007.7 hPa | 0 mm | - | - | - |
| 1777752753 | 17.78° C | 46% | 1007.7 hPa | 0 mm | - | - | - |
| 1777752153 | 17.78° C | 48% | 1007.9 hPa | 0 mm | - | - | - |
| 1777751554 | 17.78° C | 46% | 1008.1 hPa | 0 mm | - | - | - |
| 1777750952 | 17.78° C | 45% | 1008.1 hPa | 0 mm | - | - | - |
| 1777750353 | 17.78° C | 46% | 1008.3 hPa | 0 mm | - | - | - |
| 1777749752 | 17.78° C | 47% | 1008.3 hPa | 0 mm | - | - | - |
| 1777749153 | 17.78° C | 48% | 1008.3 hPa | 0 mm | - | - | - |
| 1777748554 | 17.78° C | 47% | 1008.8 hPa | 0 mm | - | - | - |
| 1777747953 | 17.78° C | 48% | 1008.8 hPa | 0 mm | - | - | - |
| 1777747353 | 17.78° C | 49% | 1008.8 hPa | 0 mm | - | - | - |
| 1777746753 | 17.22° C | 51% | 1009 hPa | 0 mm | - | - | - |
| 1777746152 | 17.22° C | 51% | 1008.8 hPa | 0 mm | - | - | - |
| 1777745553 | 17.22° C | 54% | 1009 hPa | 0 mm | - | - | - |
| 1777744952 | 16.67° C | 56% | 1009 hPa | 0 mm | - | - | - |
* Rain latest hour (hover to see other rain measurements)
** Current wind speed in m/s (hover to see current wind gust speed)